Time,TemperatureF,DewpointF,PressureIn,WindDirection,WindDirectionDegrees,WindSpeedMPH,WindSpeedGustMPH,Humidity,HourlyPrecipIn,Conditions,Clouds,dailyrainin,SoftwareType,DateUTC
2013-04-08 00:00:00,60.7,59.3,30.11,SW,231,0.0,0.0,95,0.00,,CLR,0.00,VWS V14.01,2013-04-08 04:00:00,
2013-04-08 00:02:00,60.7,59.3,30.11,SW,231,0.0,0.0,95,0.00,,CLR,0.00,VWS V14.01,2013-04-08 04:02:00,
2013-04-08 00:06:00,60.6,59.2,30.11,SW,231,0.0,0.0,95,0.00,,CLR,0.00,VWS V14.01,2013-04-08 04:06:00,
2013-04-08 00:11:00,60.5,59.1,30.11,SW,231,0.0,0.0,95,0.00,,CLR,0.00,VWS V14.01,2013-04-08 04:11:00,
2013-04-08 00:16:00,60.4,59.0,30.11,SW,231,0.0,0.0,95,0.00,,CLR,0.00,VWS V14.01,2013-04-08 04:16:00,
2013-04-08 00:22:00,60.3,58.9,30.11,SW,231,0.0,0.0,95,0.00,,CLR,0.00,VWS V14.01,2013-04-08 04:22:00,
2013-04-08 00:27:00,60.1,59.0,30.11,SW,231,0.0,0.0,96,0.00,,CLR,0.00,VWS V14.01,2013-04-08 04:27:00,
2013-04-08 00:32:00,60.1,59.0,30.11,SW,231,0.0,0.0,96,0.00,,CLR,0.00,VWS V14.01,2013-04-08 04:32:00,
2013-04-08 00:37:00,60.1,59.0,30.11,SW,231,0.0,0.0,96,0.00,,CLR,0.00,VWS V14.01,2013-04-08 04:37:00,
2013-04-08 00:42:00,60.0,58.9,30.11,SW,231,0.0,0.0,96,0.00,,CLR,0.00,VWS V14.01,2013-04-08 04:42:00,
2013-04-08 00:47:00,59.9,58.8,30.11,SW,231,0.0,0.0,96,0.00,,CLR,0.00,VWS V14.01,2013-04-08 04:47:00,
2013-04-08 00:52:00,59.9,58.8,30.11,SW,231,0.0,0.0,96,0.00,,CLR,0.00,VWS V14.01,2013-04-08 04:52:00,
2013-04-08 00:58:00,59.8,58.7,30.11,SW,230,0.0,0.0,96,0.00,,CLR,0.00,VWS V14.01,2013-04-08 04:58:00,
2013-04-08 01:03:00,59.9,58.8,30.11,SW,231,0.0,0.0,96,0.00,,CLR,0.00,VWS V14.01,2013-04-08 05:03:00,
2013-04-08 01:08:00,59.8,58.7,30.10,SW,231,0.0,0.0,96,0.00,,CLR,0.00,VWS V14.01,2013-04-08 05:08:00,
2013-04-08 01:13:00,59.7,58.6,30.10,SW,231,0.0,0.0,96,0.00,,CLR,0.00,VWS V14.01,2013-04-08 05:13:00,
2013-04-08 01:18:00,59.6,58.5,30.10,SW,231,0.0,0.0,96,0.00,,CLR,0.00,VWS V14.01,2013-04-08 05:18:00,
2013-04-08 01:23:00,59.5,58.4,30.10,SW,230,0.0,0.0,96,0.00,,CLR,0.00,VWS V14.01,2013-04-08 05:23:00,
2013-04-08 01:28:00,59.6,58.5,30.10,SW,231,0.0,0.0,96,0.00,,CLR,0.00,VWS V14.01,2013-04-08 05:28:00,
2013-04-08 01:34:00,59.7,58.8,30.10,SW,231,0.0,0.0,97,0.00,,CLR,0.00,VWS V14.01,2013-04-08 05:34:00,
2013-04-08 01:39:00,59.7,58.8,30.10,SW,231,0.0,0.0,97,0.00,,CLR,0.00,VWS V14.01,2013-04-08 05:39:00,
2013-04-08 01:44:00,59.7,58.8,30.09,SW,231,0.0,0.0,97,0.00,,CLR,0.00,VWS V14.01,2013-04-08 05:44:00,
2013-04-08 01:49:00,59.7,58.8,30.09,SW,231,0.0,0.0,97,0.00,,CLR,0.00,VWS V14.01,2013-04-08 05:49:00,
2013-04-08 01:54:00,59.8,59.0,30.09,SW,231,0.0,0.0,97,0.00,,CLR,0.00,VWS V14.01,2013-04-08 05:54:00,
2013-04-08 01:59:00,59.7,58.8,30.09,SW,231,0.0,0.0,97,0.00,,CLR,0.00,VWS V14.01,2013-04-08 05:59:00,
2013-04-08 02:04:00,59.6,58.8,30.08,SW,231,0.0,0.0,97,0.00,,CLR,0.00,VWS V14.01,2013-04-08 06:04:00,
2013-04-08 02:09:00,59.5,58.7,30.08,SW,231,0.0,0.0,97,0.00,,CLR,0.00,VWS V14.01,2013-04-08 06:09:00,
2013-04-08 02:15:00,59.5,58.7,30.08,SW,231,0.0,0.0,97,0.00,,CLR,0.00,VWS V14.01,2013-04-08 06:15:00,
2013-04-08 02:20:00,59.5,58.7,30.08,SW,231,0.0,0.0,97,0.00,,CLR,0.00,VWS V14.01,2013-04-08 06:20:00,
2013-04-08 02:25:00,59.4,58.5,30.08,SW,231,0.0,0.0,97,0.00,,CLR,0.00,VWS V14.01,2013-04-08 06:25:00,
2013-04-08 02:30:00,59.4,58.5,30.08,SW,231,0.0,0.0,97,0.00,,CLR,0.00,VWS V14.01,2013-04-08 06:30:00,
2013-04-08 02:35:00,59.4,58.5,30.08,SW,231,0.0,0.0,97,0.00,,CLR,0.00,VWS V14.01,2013-04-08 06:35:00,
2013-04-08 02:40:00,59.3,58.5,30.08,SW,231,0.0,0.0,97,0.00,,CLR,0.00,VWS V14.01,2013-04-08 06:40:00,
2013-04-08 02:45:00,59.3,58.5,30.08,SW,230,0.0,0.0,97,0.00,,CLR,0.00,VWS V14.01,2013-04-08 06:45:00,
2013-04-08 02:50:00,59.2,58.3,30.08,SW,231,0.0,0.0,97,0.00,,CLR,0.00,VWS V14.01,2013-04-08 06:50:00,
2013-04-08 02:55:00,59.1,58.2,30.08,SW,231,0.0,0.0,97,0.00,,CLR,0.00,VWS V14.01,2013-04-08 06:55:00,
2013-04-08 03:00:00,59.1,58.2,30.07,SW,231,0.0,0.0,97,0.00,,CLR,0.00,VWS V14.01,2013-04-08 07:00:00,
2013-04-08 03:05:00,59.1,58.2,30.08,SW,231,0.0,0.0,97,0.00,,CLR,0.00,VWS V14.01,2013-04-08 07:05:00,
2013-04-08 03:10:00,58.9,58.0,30.08,SW,231,0.0,0.0,97,0.00,,CLR,0.00,VWS V14.01,2013-04-08 07:10:00,
2013-04-08 03:15:00,58.8,58.0,30.07,SW,231,0.0,0.0,97,0.00,,CLR,0.00,VWS V14.01,2013-04-08 07:15:00,
2013-04-08 03:20:00,58.9,58.0,30.07,SW,231,0.0,0.0,97,0.00,,CLR,0.00,VWS V14.01,2013-04-08 07:20:00,
2013-04-08 03:26:00,58.8,58.0,30.07,SW,231,0.0,0.0,97,0.00,,CLR,0.00,VWS V14.01,2013-04-08 07:26:00,
2013-04-08 03:31:00,58.7,57.8,30.07,SW,231,0.0,0.0,97,0.00,,CLR,0.00,VWS V14.01,2013-04-08 07:31:00,
2013-04-08 03:36:00,58.6,57.8,30.07,SW,231,0.0,0.0,97,0.00,,CLR,0.00,VWS V14.01,2013-04-08 07:36:00,
2013-04-08 03:41:00,58.5,57.7,30.07,SW,231,0.0,0.0,97,0.00,,CLR,0.00,VWS V14.01,2013-04-08 07:41:00,
2013-04-08 03:46:00,58.3,57.5,30.07,SW,231,0.0,0.0,97,0.00,,CLR,0.00,VWS V14.01,2013-04-08 07:46:00,
2013-04-08 03:52:00,58.2,57.4,30.07,SW,230,0.0,0.0,97,0.00,,CLR,0.00,VWS V14.01,2013-04-08 07:52:00,
2013-04-08 03:57:00,58.1,57.3,30.07,SW,230,0.0,0.0,97,0.00,,CLR,0.00,VWS V14.01,2013-04-08 07:57:00,
2013-04-08 04:02:00,58.0,57.2,30.06,SW,231,0.0,0.0,97,0.00,,CLR,0.00,VWS V14.01,2013-04-08 08:02:00,
2013-04-08 04:07:00,58.0,57.2,30.06,SW,231,0.0,0.0,97,0.00,,CLR,0.00,VWS V14.01,2013-04-08 08:07:00,
2013-04-08 04:12:00,57.9,57.1,30.06,SW,231,0.0,0.0,97,0.00,,CLR,0.00,VWS V14.01,2013-04-08 08:12:00,
2013-04-08 04:17:00,57.8,57.0,30.06,SW,231,0.0,0.0,97,0.00,,CLR,0.00,VWS V14.01,2013-04-08 08:17:00,
2013-04-08 04:22:00,57.7,56.9,30.06,SW,231,0.0,0.0,97,0.00,,CLR,0.00,VWS V14.01,2013-04-08 08:22:00,
2013-04-08 04:27:00,57.7,56.9,30.06,SW,231,0.0,0.0,97,0.00,,CLR,0.00,VWS V14.01,2013-04-08 08:27:00,
2013-04-08 04:32:00,57.6,56.8,30.06,SW,231,0.0,0.0,97,0.00,,CLR,0.00,VWS V14.01,2013-04-08 08:32:00,
2013-04-08 04:37:00,57.6,56.8,30.06,SW,231,0.0,0.0,97,0.00,,CLR,0.00,VWS V14.01,2013-04-08 08:37:00,
2013-04-08 04:43:00,57.6,56.8,30.06,SW,231,0.0,0.0,97,0.00,,CLR,0.00,VWS V14.01,2013-04-08 08:43:00,
2013-04-08 04:48:00,57.6,56.8,30.06,SW,231,0.0,0.0,97,0.00,,CLR,0.00,VWS V14.01,2013-04-08 08:48:00,
2013-04-08 04:53:00,57.7,56.9,30.06,SW,230,0.0,0.0,97,0.00,,CLR,0.00,VWS V14.01,2013-04-08 08:53:00,
2013-04-08 04:58:00,58.0,57.2,30.06,SW,231,0.0,0.0,97,0.00,,CLR,0.00,VWS V14.01,2013-04-08 08:58:00,
2013-04-08 05:03:00,58.1,57.3,30.06,SW,231,0.0,0.0,97,0.00,,BKN065,0.00,VWS V14.01,2013-04-08 09:03:00,
2013-04-08 05:08:00,58.0,57.2,30.06,SW,231,0.0,0.0,97,0.00,,BKN065,0.00,VWS V14.01,2013-04-08 09:08:00,
2013-04-08 05:13:00,58.0,57.2,30.06,SW,231,0.0,0.0,97,0.00,,BKN065,0.00,VWS V14.01,2013-04-08 09:13:00,
2013-04-08 05:19:00,57.8,57.0,30.06,SW,231,0.0,0.0,97,0.00,,BKN065,0.00,VWS V14.01,2013-04-08 09:19:00,
2013-04-08 05:24:00,57.6,56.8,30.06,SW,231,0.0,0.0,97,0.00,,BKN065,0.00,VWS V14.01,2013-04-08 09:24:00,
2013-04-08 05:29:00,57.4,56.6,30.06,SW,231,0.0,0.0,97,0.00,,BKN065,0.00,VWS V14.01,2013-04-08 09:29:00,
2013-04-08 05:34:00,57.2,56.4,30.06,SW,231,0.0,0.0,97,0.00,,BKN065,0.00,VWS V14.01,2013-04-08 09:34:00,
2013-04-08 05:39:00,57.1,56.3,30.06,SW,231,0.0,0.0,97,0.00,,BKN065,0.00,VWS V14.01,2013-04-08 09:39:00,
2013-04-08 05:45:00,57.1,56.3,30.06,SW,231,0.0,0.0,97,0.00,,BKN065,0.00,VWS V14.01,2013-04-08 09:45:00,
2013-04-08 05:50:00,57.1,56.3,30.06,SW,231,0.0,0.0,97,0.00,,BKN065,0.00,VWS V14.01,2013-04-08 09:50:00,
2013-04-08 05:55:00,57.0,56.2,30.07,SW,231,0.0,0.0,97,0.00,,BKN065,0.00,VWS V14.01,2013-04-08 09:55:00,
2013-04-08 06:01:00,57.0,56.2,30.07,SW,231,0.0,0.0,97,0.00,,CLR,0.00,VWS V14.01,2013-04-08 10:01:00,
2013-04-08 06:06:00,56.9,56.1,30.07,SW,230,0.0,0.0,97,0.00,,CLR,0.00,VWS V14.01,2013-04-08 10:06:00,
2013-04-08 06:11:00,57.1,56.3,30.08,SW,231,0.0,0.0,97,0.00,,CLR,0.00,VWS V14.01,2013-04-08 10:11:00,
2013-04-08 06:16:00,57.2,56.4,30.08,SW,231,0.0,0.0,97,0.00,,CLR,0.00,VWS V14.01,2013-04-08 10:16:00,
2013-04-08 06:21:00,57.3,56.5,30.08,SW,231,0.0,0.0,97,0.00,,CLR,0.00,VWS V14.01,2013-04-08 10:21:00,
2013-04-08 06:27:00,57.2,56.4,30.08,SW,230,0.0,0.0,97,0.00,,CLR,0.00,VWS V14.01,2013-04-08 10:27:00,
2013-04-08 06:32:00,57.1,56.3,30.08,SW,231,0.0,0.0,97,0.00,,CLR,0.00,VWS V14.01,2013-04-08 10:32:00,
2013-04-08 06:37:00,56.9,56.1,30.08,SW,231,0.0,0.0,97,0.00,,CLR,0.00,VWS V14.01,2013-04-08 10:37:00,
2013-04-08 06:42:00,56.8,56.0,30.08,SW,231,0.0,0.0,97,0.00,,CLR,0.00,VWS V14.01,2013-04-08 10:42:00,
2013-04-08 06:48:00,56.8,56.0,30.09,SW,231,0.0,0.0,97,0.00,,CLR,0.00,VWS V14.01,2013-04-08 10:48:00,
2013-04-08 06:53:00,56.8,56.0,30.09,SW,231,0.0,0.0,97,0.00,,CLR,0.00,VWS V14.01,2013-04-08 10:53:00,
2013-04-08 06:58:00,56.9,56.1,30.09,SW,231,0.0,0.0,97,0.00,,CLR,0.00,VWS V14.01,2013-04-08 10:58:00,
2013-04-08 07:03:00,57.1,56.5,30.09,SW,231,0.0,0.0,98,0.00,,CLR,0.00,VWS V14.01,2013-04-08 11:03:00,
2013-04-08 07:08:00,57.2,56.6,30.09,SW,230,0.0,0.0,98,0.00,,CLR,0.00,VWS V14.01,2013-04-08 11:08:00,
2013-04-08 07:13:00,57.3,56.7,30.09,SW,231,0.0,0.0,98,0.00,,CLR,0.00,VWS V14.01,2013-04-08 11:13:00,
2013-04-08 07:18:00,57.3,56.7,30.10,SW,231,0.0,0.0,98,0.00,,CLR,0.00,VWS V14.01,2013-04-08 11:18:00,
2013-04-08 07:23:00,57.1,56.5,30.10,SW,230,0.0,0.0,98,0.00,,CLR,0.00,VWS V14.01,2013-04-08 11:23:00,
2013-04-08 07:29:00,57.2,56.6,30.10,SW,231,0.0,0.0,98,0.00,,CLR,0.00,VWS V14.01,2013-04-08 11:29:00,
2013-04-08 07:35:00,57.2,56.6,30.10,SW,231,0.0,0.0,98,0.00,,CLR,0.00,VWS V14.01,2013-04-08 11:35:00,
2013-04-08 07:40:00,57.2,56.6,30.11,SW,230,0.0,0.0,98,0.00,,CLR,0.00,VWS V14.01,2013-04-08 11:40:00,
2013-04-08 07:45:00,57.3,56.7,30.11,SW,231,0.0,0.0,98,0.00,,CLR,0.00,VWS V14.01,2013-04-08 11:45:00,
2013-04-08 07:50:00,57.5,56.9,30.11,SW,231,0.0,0.0,98,0.00,,CLR,0.00,VWS V14.01,2013-04-08 11:50:00,
2013-04-08 07:55:00,57.7,57.1,30.11,SW,231,0.0,0.0,98,0.00,,CLR,0.00,VWS V14.01,2013-04-08 11:55:00,
2013-04-08 08:01:00,58.1,57.5,30.11,SW,231,0.0,0.0,98,0.00,,CLR,0.00,VWS V14.01,2013-04-08 12:01:00,
2013-04-08 08:06:00,58.5,57.9,30.12,SW,231,0.0,0.0,98,0.00,,CLR,0.00,VWS V14.01,2013-04-08 12:06:00,
2013-04-08 08:11:00,59.1,58.5,30.12,SW,231,0.0,0.0,98,0.00,,CLR,0.00,VWS V14.01,2013-04-08 12:11:00,
2013-04-08 08:16:00,60.1,59.5,30.12,SW,231,0.0,0.0,98,0.00,,CLR,0.00,VWS V14.01,2013-04-08 12:16:00,
2013-04-08 08:21:00,60.6,60.0,30.12,SW,231,0.0,0.0,98,0.00,,CLR,0.00,VWS V14.01,2013-04-08 12:21:00,
2013-04-08 08:27:00,61.0,60.4,30.12,SW,231,0.0,0.0,98,0.00,,CLR,0.00,VWS V14.01,2013-04-08 12:27:00,
2013-04-08 08:32:00,61.6,61.3,30.12,SW,231,0.0,0.0,99,0.00,,CLR,0.00,VWS V14.01,2013-04-08 12:32:00,
2013-04-08 08:37:00,62.3,62.0,30.12,SW,231,0.0,0.0,99,0.00,,CLR,0.00,VWS V14.01,2013-04-08 12:37:00,
2013-04-08 08:42:00,62.8,62.5,30.13,SW,231,0.0,0.0,99,0.00,,CLR,0.00,VWS V14.01,2013-04-08 12:42:00,
2013-04-08 08:47:00,63.1,62.8,30.13,SW,231,0.0,0.0,99,0.00,,CLR,0.00,VWS V14.01,2013-04-08 12:47:00,
2013-04-08 08:52:00,63.5,63.2,30.13,SW,231,0.0,0.0,99,0.00,,CLR,0.00,VWS V14.01,2013-04-08 12:52:00,
2013-04-08 08:57:00,64.0,63.7,30.13,SW,231,0.0,0.0,99,0.00,,CLR,0.00,VWS V14.01,2013-04-08 12:57:00,
2013-04-08 09:03:00,64.4,64.1,30.13,SW,230,0.0,0.0,99,0.00,,CLR,0.00,VWS V14.01,2013-04-08 13:03:00,
2013-04-08 09:08:00,64.7,64.4,30.13,SW,231,0.0,0.0,99,0.00,,CLR,0.00,VWS V14.01,2013-04-08 13:08:00,
2013-04-08 09:13:00,64.9,64.6,30.13,SW,231,0.0,0.0,99,0.00,,CLR,0.00,VWS V14.01,2013-04-08 13:13:00,
2013-04-08 09:18:00,64.8,64.5,30.13,SW,221,0.0,1.0,99,0.00,,CLR,0.00,VWS V14.01,2013-04-08 13:18:00,
2013-04-08 09:23:00,65.0,64.7,30.13,SW,221,0.0,1.0,99,0.00,,CLR,0.00,VWS V14.01,2013-04-08 13:23:00,
2013-04-08 09:28:00,65.3,65.0,30.13,SW,221,0.0,1.0,99,0.00,,CLR,0.00,VWS V14.01,2013-04-08 13:28:00,
2013-04-08 09:34:00,65.4,64.8,30.13,SSW,193,0.0,1.0,98,0.00,,CLR,0.00,VWS V14.01,2013-04-08 13:34:00,
2013-04-08 09:39:00,66.5,65.3,30.13,South,186,0.0,2.0,96,0.00,,CLR,0.00,VWS V14.01,2013-04-08 13:39:00,
2013-04-08 09:44:00,67.5,64.8,30.13,South,186,0.0,2.0,91,0.00,,CLR,0.00,VWS V14.01,2013-04-08 13:44:00,
2013-04-08 09:50:00,68.6,64.9,30.14,SE,142,0.0,2.0,88,0.00,,CLR,0.00,VWS V14.01,2013-04-08 13:50:00,
2013-04-08 09:55:00,69.7,64.7,30.14,SSE,163,0.0,2.0,84,0.00,,CLR,0.00,VWS V14.01,2013-04-08 13:55:00,
2013-04-08 10:00:00,70.6,64.5,30.14,SSE,155,0.0,2.0,81,0.00,,CLR,0.00,VWS V14.01,2013-04-08 14:00:00,
2013-04-08 10:05:00,71.2,65.1,30.14,SW,233,0.0,0.0,81,0.00,,CLR,0.00,VWS V14.01,2013-04-08 14:05:00,
2013-04-08 10:10:00,71.9,64.3,30.14,SSW,205,0.0,3.0,77,0.00,,CLR,0.00,VWS V14.01,2013-04-08 14:10:00,
2013-04-08 10:15:00,72.6,64.6,30.14,South,169,0.0,3.0,76,0.00,,CLR,0.00,VWS V14.01,2013-04-08 14:15:00,
2013-04-08 10:20:00,73.4,63.8,30.14,South,169,1.0,3.0,72,0.00,,CLR,0.00,VWS V14.01,2013-04-08 14:20:00,
2013-04-08 10:25:00,74.2,64.6,30.14,SSE,159,0.0,3.0,72,0.00,,CLR,0.00,VWS V14.01,2013-04-08 14:25:00,
2013-04-08 10:31:00,74.8,64.4,30.14,ESE,112,0.0,3.0,70,0.00,,CLR,0.00,VWS V14.01,2013-04-08 14:31:00,
2013-04-08 10:36:00,75.6,64.3,30.13,SW,217,1.0,2.0,68,0.00,,CLR,0.00,VWS V14.01,2013-04-08 14:36:00,
2013-04-08 10:42:00,76.2,64.0,30.13,SE,145,1.0,5.0,66,0.00,,CLR,0.00,VWS V14.01,2013-04-08 14:42:00,
2013-04-08 10:47:00,76.9,63.8,30.14,SSW,205,2.0,5.0,64,0.00,,CLR,0.00,VWS V14.01,2013-04-08 14:47:00,
2013-04-08 10:52:00,77.4,64.3,30.13,NNW,333,1.0,6.0,64,0.00,,CLR,0.00,VWS V14.01,2013-04-08 14:52:00,
2013-04-08 10:57:00,77.4,64.3,30.13,SW,222,0.0,6.0,64,0.00,,CLR,0.00,VWS V14.01,2013-04-08 14:57:00,
2013-04-08 11:02:00,77.9,63.8,30.14,SW,214,6.0,6.0,62,0.00,,CLR,0.00,VWS V14.01,2013-04-08 15:02:00,
2013-04-08 11:07:00,78.7,64.1,30.14,SSW,208,3.0,5.0,61,0.00,,CLR,0.00,VWS V14.01,2013-04-08 15:07:00,
2013-04-08 11:13:00,79.5,63.9,30.14,ESE,119,0.0,5.0,59,0.00,,CLR,0.00,VWS V14.01,2013-04-08 15:13:00,
2013-04-08 11:18:00,79.8,63.7,30.14,SSE,152,1.0,6.0,58,0.00,,CLR,0.00,VWS V14.01,2013-04-08 15:18:00,
2013-04-08 11:23:00,80.1,62.5,30.14,WSW,239,2.0,7.0,55,0.00,,CLR,0.00,VWS V14.01,2013-04-08 15:23:00,
2013-04-08 11:28:00,80.0,64.4,30.14,SSW,200,0.0,7.0,59,0.00,,CLR,0.00,VWS V14.01,2013-04-08 15:28:00,
2013-04-08 11:34:00,79.6,63.5,30.14,SW,231,0.0,7.0,58,0.00,,CLR,0.00,VWS V14.01,2013-04-08 15:34:00,
2013-04-08 11:39:00,80.4,63.3,30.14,SE,141,0.0,6.0,56,0.00,,CLR,0.00,VWS V14.01,2013-04-08 15:39:00,
2013-04-08 11:44:00,81.0,62.8,30.14,SE,134,0.0,6.0,54,0.00,,CLR,0.00,VWS V14.01,2013-04-08 15:44:00,
2013-04-08 11:49:00,80.2,62.6,30.14,SSW,194,0.0,6.0,55,0.00,,CLR,0.00,VWS V14.01,2013-04-08 15:49:00,
2013-04-08 11:54:00,80.2,64.1,30.13,SSW,193,0.0,6.0,58,0.00,,CLR,0.00,VWS V14.01,2013-04-08 15:54:00,
2013-04-08 11:59:00,80.5,62.9,30.13,NNE,16,0.0,6.0,55,0.00,,CLR,0.00,VWS V14.01,2013-04-08 15:59:00,
2013-04-08 12:05:00,80.7,63.0,30.13,SW,224,0.0,1.0,55,0.00,,SCT045,0.00,VWS V14.01,2013-04-08 16:05:00,
2013-04-08 12:10:00,80.6,61.9,30.13,South,178,1.0,3.0,53,0.00,,SCT045,0.00,VWS V14.01,2013-04-08 16:10:00,
2013-04-08 12:15:00,80.5,61.8,30.13,SSE,150,1.0,6.0,53,0.00,,SCT045,0.00,VWS V14.01,2013-04-08 16:15:00,
2013-04-08 12:20:00,80.3,62.2,30.13,WSW,238,0.0,6.0,54,0.00,,SCT045,0.00,VWS V14.01,2013-04-08 16:20:00,
2013-04-08 12:25:00,80.4,62.2,30.13,South,191,0.0,6.0,54,0.00,,SCT045,0.00,VWS V14.01,2013-04-08 16:25:00,
2013-04-08 12:30:00,80.4,62.8,30.12,West,274,0.0,6.0,55,0.00,,BKN110,0.00,VWS V14.01,2013-04-08 16:30:00,
2013-04-08 12:35:00,80.5,61.8,30.12,SE,132,2.0,2.0,53,0.00,,BKN110,0.00,VWS V14.01,2013-04-08 16:35:00,
2013-04-08 12:41:00,80.7,62.5,30.12,SSE,151,1.0,3.0,54,0.00,,BKN110,0.00,VWS V14.01,2013-04-08 16:41:00,
2013-04-08 12:46:00,81.1,61.8,30.12,SE,137,1.0,4.0,52,0.00,,BKN110,0.00,VWS V14.01,2013-04-08 16:46:00,
2013-04-08 12:51:00,81.7,62.4,30.12,South,190,3.0,5.0,52,0.00,,BKN110,0.00,VWS V14.01,2013-04-08 16:51:00,
2013-04-08 12:56:00,82.6,62.7,30.12,East,98,1.0,5.0,51,0.00,,BKN110,0.00,VWS V14.01,2013-04-08 16:56:00,
2013-04-08 13:01:00,83.1,63.1,30.12,WNW,300,0.0,5.0,51,0.00,,,0.00,VWS V14.01,2013-04-08 17:01:00,
2013-04-08 13:07:00,82.3,62.9,30.12,NNE,27,0.0,4.0,52,0.00,,,0.00,VWS V14.01,2013-04-08 17:07:00,
2013-04-08 13:12:00,82.3,64.0,30.11,SSW,211,1.0,4.0,54,0.00,,,0.00,VWS V14.01,2013-04-08 17:12:00,
2013-04-08 13:17:00,82.3,63.5,30.11,SSE,166,0.0,6.0,53,0.00,,,0.00,VWS V14.01,2013-04-08 17:17:00,
2013-04-08 13:22:00,81.9,62.6,30.11,South,188,0.0,6.0,52,0.00,,,0.00,VWS V14.01,2013-04-08 17:22:00,
2013-04-08 13:27:00,81.3,62.5,30.11,SW,226,0.0,6.0,53,0.00,,,0.00,VWS V14.01,2013-04-08 17:27:00,
2013-04-08 13:32:00,81.7,62.4,30.10,SW,218,2.0,6.0,52,0.00,,,0.00,VWS V14.01,2013-04-08 17:32:00,
2013-04-08 13:37:00,82.9,64.6,30.10,SSE,148,0.0,3.0,54,0.00,,,0.00,VWS V14.01,2013-04-08 17:37:00,
2013-04-08 13:42:00,83.7,62.5,30.10,ESE,113,1.0,5.0,49,0.00,,,0.00,VWS V14.01,2013-04-08 17:42:00,
2013-04-08 13:47:00,83.2,63.2,30.10,South,174,1.0,5.0,51,0.00,,,0.00,VWS V14.01,2013-04-08 17:47:00,
2013-04-08 13:52:00,83.7,64.2,30.10,ENE,74,1.0,5.0,52,0.00,,,0.00,VWS V14.01,2013-04-08 17:52:00,
2013-04-08 13:57:00,84.0,63.4,30.09,SSE,148,0.0,6.0,50,0.00,,,0.00,VWS V14.01,2013-04-08 17:57:00,
2013-04-08 14:03:00,83.6,63.0,30.09,SSW,212,3.0,6.0,50,0.00,,FEW050,0.00,VWS V14.01,2013-04-08 18:03:00,
2013-04-08 14:08:00,83.3,62.7,30.09,SSW,212,0.0,2.0,50,0.00,,FEW050,0.00,VWS V14.01,2013-04-08 18:08:00,
2013-04-08 14:13:00,83.3,63.9,30.09,South,173,6.0,7.0,52,0.00,,FEW050,0.00,VWS V14.01,2013-04-08 18:13:00,
2013-04-08 14:18:00,82.8,63.9,30.09,WSW,245,0.0,7.0,53,0.00,,FEW050,0.00,VWS V14.01,2013-04-08 18:18:00,
2013-04-08 14:23:00,82.6,63.2,30.08,NNW,332,0.0,7.0,52,0.00,,FEW050,0.00,VWS V14.01,2013-04-08 18:23:00,
2013-04-08 14:28:00,83.6,64.7,30.08,NNE,23,1.0,7.0,53,0.00,,FEW050,0.00,VWS V14.01,2013-04-08 18:28:00,
2013-04-08 14:33:00,84.2,61.8,30.08,SSW,203,1.0,7.0,47,0.00,,FEW050,0.00,VWS V14.01,2013-04-08 18:33:00,
2013-04-08 14:38:00,83.5,62.9,30.08,WSW,250,1.0,3.0,50,0.00,,FEW050,0.00,VWS V14.01,2013-04-08 18:38:00,
2013-04-08 14:43:00,82.9,63.5,30.07,East,101,1.0,3.0,52,0.00,,FEW050,0.00,VWS V14.01,2013-04-08 18:43:00,
2013-04-08 14:48:00,82.5,63.7,30.07,WSW,245,0.0,3.0,53,0.00,,FEW050,0.00,VWS V14.01,2013-04-08 18:48:00,
2013-04-08 14:53:00,82.6,63.8,30.07,SW,227,0.0,3.0,53,0.00,,FEW050,0.00,VWS V14.01,2013-04-08 18:53:00,
2013-04-08 14:58:00,82.2,63.9,30.07,SSW,193,0.0,3.0,54,0.00,,FEW050,0.00,VWS V14.01,2013-04-08 18:58:00,
2013-04-08 15:04:00,81.7,64.0,30.07,SSW,203,0.0,3.0,55,0.00,,FEW050,0.00,VWS V14.01,2013-04-08 19:04:00,
2013-04-08 15:09:00,81.6,63.4,30.07,SSW,207,2.0,3.0,54,0.00,,FEW050,0.00,VWS V14.01,2013-04-08 19:09:00,
2013-04-08 15:14:00,82.0,63.7,30.07,SW,229,0.0,3.0,54,0.00,,FEW050,0.00,VWS V14.01,2013-04-08 19:14:00,
2013-04-08 15:20:00,83.4,64.0,30.06,SE,139,0.0,5.0,52,0.00,,FEW050,0.00,VWS V14.01,2013-04-08 19:20:00,
2013-04-08 15:24:00,84.2,64.1,30.06,SSW,203,0.0,7.0,51,0.00,,FEW050,0.00,VWS V14.01,2013-04-08 19:24:00,
2013-04-08 15:30:00,84.0,63.9,30.06,SE,127,1.0,7.0,51,0.00,,FEW050,0.00,VWS V14.01,2013-04-08 19:30:00,
2013-04-08 15:35:00,84.8,64.1,30.06,SW,232,0.0,4.0,50,0.00,,FEW050,0.00,VWS V14.01,2013-04-08 19:35:00,
2013-04-08 15:40:00,85.1,64.4,30.06,ENE,77,1.0,4.0,50,0.00,,FEW050,0.00,VWS V14.01,2013-04-08 19:40:00,
2013-04-08 15:45:00,84.3,64.2,30.06,WSW,238,1.0,4.0,51,0.00,,FEW050,0.00,VWS V14.01,2013-04-08 19:45:00,
2013-04-08 15:50:00,83.7,63.7,30.06,SW,231,0.0,4.0,51,0.00,,FEW050,0.00,VWS V14.01,2013-04-08 19:50:00,
2013-04-08 15:55:00,83.9,64.9,30.06,West,273,1.0,6.0,53,0.00,,FEW050,0.00,VWS V14.01,2013-04-08 19:55:00,
2013-04-08 16:00:00,83.4,64.0,30.06,SSW,207,1.0,8.0,52,0.00,,SCT075,0.00,VWS V14.01,2013-04-08 20:00:00,
2013-04-08 16:05:00,83.9,64.9,30.06,SW,219,1.0,2.0,53,0.00,,SCT075,0.00,VWS V14.01,2013-04-08 20:05:00,
2013-04-08 16:10:00,84.4,64.3,30.06,East,93,1.0,5.0,51,0.00,,SCT075,0.00,VWS V14.01,2013-04-08 20:10:00,
2013-04-08 16:15:00,84.4,64.3,30.05,WSW,243,4.0,7.0,51,0.00,,SCT075,0.00,VWS V14.01,2013-04-08 20:15:00,
2013-04-08 16:21:00,84.8,65.2,30.05,ENE,61,0.0,7.0,52,0.00,,SCT075,0.00,VWS V14.01,2013-04-08 20:21:00,
2013-04-08 16:26:00,84.6,63.9,30.06,East,88,1.0,7.0,50,0.00,,SCT075,0.00,VWS V14.01,2013-04-08 20:26:00,
2013-04-08 16:31:00,84.1,64.0,30.05,SSW,200,0.0,7.0,51,0.00,,SCT075,0.00,VWS V14.01,2013-04-08 20:31:00,
2013-04-08 16:37:00,84.6,63.3,30.05,SW,217,2.0,2.0,49,0.00,,SCT075,0.00,VWS V14.01,2013-04-08 20:37:00,
2013-04-08 16:42:00,84.8,63.5,30.05,SE,131,2.0,5.0,49,0.00,,SCT075,0.00,VWS V14.01,2013-04-08 20:42:00,
2013-04-08 16:47:00,85.3,65.1,30.05,SE,142,0.0,5.0,51,0.00,,SCT075,0.00,VWS V14.01,2013-04-08 20:47:00,
2013-04-08 16:52:00,84.3,63.1,30.05,SE,142,0.0,5.0,49,0.00,,SCT075,0.00,VWS V14.01,2013-04-08 20:52:00,
2013-04-08 16:57:00,82.8,62.8,30.05,WSW,245,1.0,5.0,51,0.00,,SCT075,0.00,VWS V14.01,2013-04-08 20:57:00,
2013-04-08 17:02:00,82.9,63.5,30.05,SW,218,0.0,5.0,52,0.00,,FEW075,0.00,VWS V14.01,2013-04-08 21:02:00,
2013-04-08 17:07:00,83.2,63.8,30.05,SE,124,0.0,2.0,52,0.00,,FEW075,0.00,VWS V14.01,2013-04-08 21:07:00,
2013-04-08 17:13:00,83.6,63.6,30.05,ESE,108,1.0,2.0,51,0.00,,FEW075,0.00,VWS V14.01,2013-04-08 21:13:00,
2013-04-08 17:18:00,82.6,63.2,30.05,SW,220,2.0,2.0,52,0.00,,FEW075,0.00,VWS V14.01,2013-04-08 21:18:00,
2013-04-08 17:23:00,82.4,64.1,30.05,SW,218,1.0,3.0,54,0.00,,FEW075,0.00,VWS V14.01,2013-04-08 21:23:00,
2013-04-08 17:28:00,82.6,64.3,30.05,SW,226,0.0,4.0,54,0.00,,FEW075,0.00,VWS V14.01,2013-04-08 21:28:00,
2013-04-08 17:33:00,82.1,64.3,30.05,NE,53,2.0,4.0,55,0.00,,FEW075,0.00,VWS V14.01,2013-04-08 21:33:00,
2013-04-08 17:38:00,81.9,64.2,30.05,SE,130,1.0,2.0,55,0.00,,FEW075,0.00,VWS V14.01,2013-04-08 21:38:00,
2013-04-08 17:43:00,81.8,63.0,30.05,SSE,162,0.0,6.0,53,0.00,,FEW075,0.00,VWS V14.01,2013-04-08 21:43:00,
2013-04-08 17:48:00,81.6,63.4,30.05,SSW,201,4.0,6.0,54,0.00,,FEW075,0.00,VWS V14.01,2013-04-08 21:48:00,
2013-04-08 17:53:00,81.6,63.4,30.06,East,88,1.0,6.0,54,0.00,,FEW075,0.00,VWS V14.01,2013-04-08 21:53:00,
2013-04-08 17:59:00,81.8,63.5,30.06,West,276,0.0,6.0,54,0.00,,FEW075,0.00,VWS V14.01,2013-04-08 21:59:00,
2013-04-08 18:04:00,81.6,62.8,30.06,SSW,207,0.0,3.0,53,0.00,,SCT050,0.00,VWS V14.01,2013-04-08 22:04:00,
2013-04-08 18:09:00,81.5,63.3,30.06,West,278,1.0,3.0,54,0.00,,SCT050,0.00,VWS V14.01,2013-04-08 22:09:00,
2013-04-08 18:14:00,81.5,63.3,30.06,SSW,203,1.0,3.0,54,0.00,,SCT050,0.00,VWS V14.01,2013-04-08 22:14:00,
2013-04-08 18:19:00,81.1,62.9,30.07,SSW,212,2.0,4.0,54,0.00,,SCT050,0.00,VWS V14.01,2013-04-08 22:19:00,
2013-04-08 18:24:00,80.8,63.1,30.07,West,259,0.0,4.0,55,0.00,,SCT050,0.00,VWS V14.01,2013-04-08 22:24:00,
2013-04-08 18:29:00,80.3,61.6,30.07,SSE,151,0.0,5.0,53,0.00,,SCT050,0.00,VWS V14.01,2013-04-08 22:29:00,
2013-04-08 18:34:00,80.0,61.9,30.07,SE,138,1.0,3.0,54,0.00,,SCT050,0.00,VWS V14.01,2013-04-08 22:34:00,
2013-04-08 18:39:00,79.4,62.3,30.07,SSW,205,0.0,4.0,56,0.00,,SCT050,0.00,VWS V14.01,2013-04-08 22:39:00,
2013-04-08 18:45:00,78.8,61.8,30.07,SW,215,2.0,4.0,56,0.00,,SCT050,0.00,VWS V14.01,2013-04-08 22:45:00,
2013-04-08 18:50:00,78.1,61.6,30.07,South,172,0.0,4.0,57,0.00,,SCT050,0.00,VWS V14.01,2013-04-08 22:50:00,
2013-04-08 18:55:00,77.8,62.3,30.08,ESE,106,0.0,4.0,59,0.00,,SCT050,0.00,VWS V14.01,2013-04-08 22:55:00,
2013-04-08 19:00:00,77.4,62.4,30.08,SSW,195,0.0,4.0,60,0.00,,SCT050,0.00,VWS V14.01,2013-04-08 23:00:00,
2013-04-08 19:05:00,76.8,62.3,30.08,SSW,198,1.0,1.0,61,0.00,,CLR,0.00,VWS V14.01,2013-04-08 23:05:00,
2013-04-08 19:10:00,76.4,61.5,30.08,SW,231,1.0,2.0,60,0.00,,CLR,0.00,VWS V14.01,2013-04-08 23:10:00,
2013-04-08 19:15:00,76.0,61.6,30.08,SSW,201,1.0,2.0,61,0.00,,CLR,0.00,VWS V14.01,2013-04-08 23:15:00,
2013-04-08 19:21:00,75.6,61.2,30.08,SE,132,1.0,4.0,61,0.00,,CLR,0.00,VWS V14.01,2013-04-08 23:21:00,
2013-04-08 19:26:00,75.2,60.8,30.08,East,93,2.0,4.0,61,0.00,,CLR,0.00,VWS V14.01,2013-04-08 23:26:00,
2013-04-08 19:31:00,74.9,61.0,30.08,ESE,103,0.0,4.0,62,0.00,,CLR,0.00,VWS V14.01,2013-04-08 23:31:00,
2013-04-08 19:36:00,74.5,61.1,30.08,SW,218,0.0,0.0,63,0.00,,CLR,0.00,VWS V14.01,2013-04-08 23:36:00,
2013-04-08 19:41:00,74.1,61.2,30.08,South,184,0.0,1.0,64,0.00,,CLR,0.00,VWS V14.01,2013-04-08 23:41:00,
2013-04-08 19:46:00,73.8,60.9,30.08,WSW,240,0.0,1.0,64,0.00,,CLR,0.00,VWS V14.01,2013-04-08 23:46:00,
2013-04-08 19:51:00,73.5,61.0,30.08,ESE,113,0.0,1.0,65,0.00,,CLR,0.00,VWS V14.01,2013-04-08 23:51:00,
2013-04-08 19:57:00,73.1,61.1,30.08,WNW,285,0.0,1.0,66,0.00,,CLR,0.00,VWS V14.01,2013-04-08 23:57:00,
2013-04-08 20:02:00,72.7,61.5,30.08,SSW,210,0.0,3.0,68,0.00,,CLR,0.00,VWS V14.01,2013-04-09 00:02:00,
2013-04-08 20:07:00,72.5,61.8,30.08,SSW,210,0.0,1.0,69,0.00,,CLR,0.00,VWS V14.01,2013-04-09 00:07:00,
2013-04-08 20:12:00,72.2,61.5,30.09,ESE,120,0.0,1.0,69,0.00,,CLR,0.00,VWS V14.01,2013-04-09 00:12:00,
2013-04-08 20:17:00,71.8,61.5,30.09,ESE,122,0.0,1.0,70,0.00,,CLR,0.00,VWS V14.01,2013-04-09 00:17:00,
2013-04-08 20:22:00,71.3,61.4,30.09,WSW,240,0.0,1.0,71,0.00,,CLR,0.00,VWS V14.01,2013-04-09 00:22:00,
2013-04-08 20:27:00,71.1,61.6,30.09,SW,228,0.0,1.0,72,0.00,,CLR,0.00,VWS V14.01,2013-04-09 00:27:00,
2013-04-08 20:32:00,70.8,61.3,30.09,SW,226,0.0,1.0,72,0.00,,CLR,0.00,VWS V14.01,2013-04-09 00:32:00,
2013-04-08 20:37:00,70.5,61.4,30.09,SW,226,0.0,0.0,73,0.00,,CLR,0.00,VWS V14.01,2013-04-09 00:37:00,
2013-04-08 20:42:00,70.2,61.5,30.09,SSW,208,0.0,1.0,74,0.00,,CLR,0.00,VWS V14.01,2013-04-09 00:42:00,
2013-04-08 20:47:00,70.0,61.7,30.09,SW,231,0.0,1.0,75,0.00,,CLR,0.00,VWS V14.01,2013-04-09 00:47:00,
2013-04-08 20:53:00,69.8,61.5,30.09,SW,231,0.0,1.0,75,0.00,,CLR,0.00,VWS V14.01,2013-04-09 00:53:00,
2013-04-08 20:58:00,69.4,61.5,30.10,SW,231,0.0,1.0,76,0.00,,CLR,0.00,VWS V14.01,2013-04-09 00:58:00,
2013-04-08 21:03:00,69.0,61.5,30.10,SW,231,0.0,1.0,77,0.00,,CLR,0.00,VWS V14.01,2013-04-09 01:03:00,
2013-04-08 21:08:00,68.7,61.6,30.10,SW,231,0.0,0.0,78,0.00,,CLR,0.00,VWS V14.01,2013-04-09 01:08:00,
2013-04-08 21:13:00,68.4,61.6,30.10,SW,231,0.0,0.0,79,0.00,,CLR,0.00,VWS V14.01,2013-04-09 01:13:00,
2013-04-08 21:18:00,68.0,61.2,30.10,SW,231,0.0,0.0,79,0.00,,CLR,0.00,VWS V14.01,2013-04-09 01:18:00,
2013-04-08 21:23:00,67.7,61.3,30.10,SW,231,0.0,0.0,80,0.00,,CLR,0.00,VWS V14.01,2013-04-09 01:23:00,
2013-04-08 21:29:00,67.5,61.5,30.10,SW,230,0.0,0.0,81,0.00,,CLR,0.00,VWS V14.01,2013-04-09 01:29:00,
2013-04-08 21:34:00,67.2,61.5,30.10,SW,231,0.0,0.0,82,0.00,,CLR,0.00,VWS V14.01,2013-04-09 01:34:00,
2013-04-08 21:39:00,67.0,61.3,30.10,SW,231,0.0,0.0,82,0.00,,CLR,0.00,VWS V14.01,2013-04-09 01:39:00,
2013-04-08 21:44:00,66.8,61.5,30.10,SW,231,0.0,0.0,83,0.00,,CLR,0.00,VWS V14.01,2013-04-09 01:44:00,
2013-04-08 21:50:00,66.6,61.6,30.10,SW,231,0.0,0.0,84,0.00,,CLR,0.00,VWS V14.01,2013-04-09 01:50:00,
2013-04-08 21:55:00,66.3,61.7,30.10,SW,229,0.0,0.0,85,0.00,,CLR,0.00,VWS V14.01,2013-04-09 01:55:00,
2013-04-08 22:00:00,65.9,61.6,30.11,SW,231,0.0,0.0,86,0.00,,CLR,0.00,VWS V14.01,2013-04-09 02:00:00,
2013-04-08 22:05:00,65.8,61.8,30.11,SW,231,0.0,0.0,87,0.00,,CLR,0.00,VWS V14.01,2013-04-09 02:05:00,
2013-04-08 22:10:00,65.7,62.0,30.11,SW,231,0.0,0.0,88,0.00,,CLR,0.00,VWS V14.01,2013-04-09 02:10:00,
2013-04-08 22:15:00,65.6,62.0,30.11,SW,229,0.0,0.0,88,0.00,,CLR,0.00,VWS V14.01,2013-04-09 02:15:00,
2013-04-08 22:20:00,65.4,62.1,30.11,SW,231,0.0,0.0,89,0.00,,CLR,0.00,VWS V14.01,2013-04-09 02:20:00,
2013-04-08 22:25:00,65.4,62.4,30.11,SW,229,0.0,0.0,90,0.00,,CLR,0.00,VWS V14.01,2013-04-09 02:25:00,
2013-04-08 22:31:00,65.4,62.4,30.11,SW,231,0.0,0.0,90,0.00,,CLR,0.00,VWS V14.01,2013-04-09 02:31:00,
2013-04-08 22:36:00,65.3,62.3,30.11,SW,229,0.0,0.0,90,0.00,,CLR,0.00,VWS V14.01,2013-04-09 02:36:00,
2013-04-08 22:41:00,65.1,62.4,30.12,SW,230,0.0,0.0,91,0.00,,CLR,0.00,VWS V14.01,2013-04-09 02:41:00,
2013-04-08 22:47:00,65.0,62.3,30.12,SW,231,0.0,0.0,91,0.00,,CLR,0.00,VWS V14.01,2013-04-09 02:47:00,
2013-04-08 22:52:00,64.9,62.5,30.12,SW,231,0.0,0.0,92,0.00,,CLR,0.00,VWS V14.01,2013-04-09 02:52:00,
2013-04-08 22:57:00,64.7,62.3,30.12,SW,231,0.0,0.0,92,0.00,,CLR,0.00,VWS V14.01,2013-04-09 02:57:00,
2013-04-08 23:02:00,64.5,62.1,30.12,SW,229,0.0,0.0,92,0.00,,CLR,0.00,VWS V14.01,2013-04-09 03:02:00,
2013-04-08 23:07:00,64.3,62.2,30.12,SW,230,0.0,0.0,93,0.00,,CLR,0.00,VWS V14.01,2013-04-09 03:07:00,
2013-04-08 23:12:00,64.2,62.1,30.12,SW,229,0.0,0.0,93,0.00,,CLR,0.00,VWS V14.01,2013-04-09 03:12:00,
2013-04-08 23:17:00,64.1,62.3,30.12,SW,230,0.0,0.0,94,0.00,,CLR,0.00,VWS V14.01,2013-04-09 03:17:00,
2013-04-08 23:22:00,64.0,62.2,30.12,SW,229,0.0,0.0,94,0.00,,CLR,0.00,VWS V14.01,2013-04-09 03:22:00,
2013-04-08 23:28:00,63.9,62.1,30.12,SW,229,0.0,0.0,94,0.00,,CLR,0.00,VWS V14.01,2013-04-09 03:28:00,
2013-04-08 23:33:00,63.9,62.4,30.12,SW,229,0.0,0.0,95,0.00,,CLR,0.00,VWS V14.01,2013-04-09 03:33:00,
2013-04-08 23:38:00,63.9,62.4,30.13,SW,229,0.0,0.0,95,0.00,,CLR,0.00,VWS V14.01,2013-04-09 03:38:00,
2013-04-08 23:43:00,64.0,62.5,30.13,SW,229,0.0,0.0,95,0.00,,CLR,0.00,VWS V14.01,2013-04-09 03:43:00,
2013-04-08 23:48:00,64.1,62.6,30.13,SW,229,0.0,0.0,95,0.00,,CLR,0.00,VWS V14.01,2013-04-09 03:48:00,
2013-04-08 23:53:00,64.0,62.5,30.13,SW,230,0.0,0.0,95,0.00,,CLR,0.00,VWS V14.01,2013-04-09 03:53:00,
2013-04-08 23:58:00,63.9,62.4,30.12,SW,229,0.0,0.0,95,0.00,,CLR,0.00,VWS V14.01,2013-04-09 03:58:00,